Wind_Speed
17 17 17 18 19 18 19 19 19 19 19 18 18 19 19 19 19 19 19 19 20 20 20 21 21 22 23 23 24 24 24 24 24 24 25 25 25 25 24 25 25 25 25
18 18 18 19 20 20 20 21 20 20 20 20 20 20 21 21 20 20 21 21 21 21 22 22 23 24 24 25 25 25 25 25 25 26 26 26 26 26 26 26 25 26 26
19 19 20 20 21 21 22 21 21 21 21 21 21 22 22 21 21 22 23 23 23 23 24 24 24 25 25 26 26 26 27 27 27 27 27 28 28 28 27 27 27 26 27
20 21 21 21 22 23 23 23 23 23 23 23 23 23 22 22 23 24 25 25 25 26 26 26 27 27 27 27 27 28 28 28 28 28 28 27 27 28 28 28 28 27 27
22 22 23 23 24 24 25 24 25 25 25 25 25 25 24 25 26 26 27 27 27 28 28 28 28 28 28 29 29 29 29 29 29 29 29 28 27 28 28 29 29 28 28
23 24 25 25 25 26 26 26 26 27 27 27 26 26 26 27 28 29 29 29 29 29 29 29 30 29 30 30 30 30 31 30 30 30 30 29 29 29 29 30 30 29 29
25 26 26 26 27 27 27 27 28 28 28 27 28 28 29 29 30 31 31 30 29 29 30 30 30 30 30 31 31 32 31 31 31 31 31 30 30 30 30 30 30 29 29
28 28 29 28 28 28 28 29 29 29 28 28 29 30 30 30 31 31 31 31 30 31 31 31 31 31 31 31 31 31 31 31 31 31 31 31 31 31 30 30 30 28 28
29 29 29 29 29 29 30 30 30 29 29 29 29 30 30 31 30 30 30 31 31 32 32 32 32 32 31 31 31 31 31 31 31 31 31 31 31 30 29 29 28 28 27
29 30 30 29 29 29 29 30 31 31 31 31 31 31 30 30 30 30 31 31 32 32 33 33 33 32 32 31 31 31 31 31 31 30 30 30 30 29 29 28 28 28 27
31 30 30 30 29 29 30 30 31 31 31 31 30 30 30 30 31 31 32 32 33 32 32 32 32 32 31 31 31 30 30 29 29 29 29 29 29 28 28 28 27 27 26
31 30 30 30 30 31 31 31 31 31 31 30 31 31 31 31 31 31 32 33 33 32 32 32 31 31 30 29 29 29 29 28 28 28 27 27 28 28 27 27 27 27 26
31 31 32 32 32 32 33 33 32 32 32 31 31 31 31 31 31 32 32 32 32 32 31 31 31 30 29 29 30 29 29 28 27 27 26 26 27 26 26 26 26 27 26
32 32 33 33 34 34 34 34 33 33 33 32 31 31 32 32 32 32 32 32 32 32 31 30 30 30 29 28 28 28 27 26 26 27 26 27 26 25 25 25 25 26 26
34 34 34 34 34 35 35 35 34 34 33 31 32 32 32 33 32 32 32 32 32 32 31 30 29 29 29 28 28 27 27 26 26 26 26 26 26 26 25 25 25 25 25
34 34 35 35 35 35 35 34 34 33 32 31 31 31 32 32 32 31 31 32 32 31 30 29 29 29 28 28 28 28 27 26 26 26 26 27 27 26 26 25 25 25 25
34 35 36 36 35 35 34 33 33 33 33 33 32 32 32 32 31 31 31 31 31 30 29 29 29 28 28 27 27 27 27 27 27 27 27 28 27 27 26 25 25 25 25
35 35 35 34 34 33 34 33 33 33 32 32 32 32 32 31 31 30 30 30 30 29 28 28 28 27 26 26 27 27 27 27 27 27 27 27 27 27 26 26 26 25 25
34 33 33 32 33 33 32 33 33 33 32 31 31 30 30 29 29 28 28 29 28 27 27 26 26 26 27 27 27 27 28 28 28 28 27 27 27 26 26 25 25 25 24
32 32 31 31 31 31 31 31 31 31 31 31 30 30 29 28 27 26 26 27 26 26 26 26 27 27 27 27 27 27 27 28 28 28 28 27 27 27 26 26 25 24 24
30 30 30 30 30 30 30 30 30 29 30 30 30 29 28 27 27 26 26 27 26 26 26 26 27 27 27 26 26 26 27 27 27 28 28 28 27 27 27 25 24 24 24
29 29 29 29 29 29 30 31 31 30 29 29 29 27 27 27 28 27 27 28 27 26 26 27 26 26 26 26 26 26 26 26 27 27 27 27 27 26 26 26 25 25 25
29 28 28 28 28 28 29 30 30 30 29 29 28 27 27 28 28 28 27 26 26 26 26 25 25 25 25 26 26 25 26 26 26 26 26 25 25 25 25 26 26 26 26
28 28 28 28 27 28 28 29 28 27 26 26 26 27 27 27 26 27 27 26 25 26 26 26 26 25 25 25 25 25 25 25 24 25 24 25 25 25 26 26 26 26 26
27 27 27 27 27 27 27 26 26 25 25 25 25 26 25 25 26 26 26 26 26 25 25 25 25 25 25 25 26 26 25 25 24 24 24 25 25 26 26 26 26 26 26
27 27 27 27 27 26 26 25 25 25 25 24 25 24 25 25 25 26 27 27 27 27 26 26 26 25 25 25 25 25 25 25 25 25 25 25 26 26 26 26 26 25 25
Wind_Direction
311 313 314 316 315 314 316 316 315 315 316 315 314 313 311 310 310 311 311 308 307 305 304 303 303 303 303 303 302 301 300 300 299 297 296 296 297 296 296 293 292 292 290
309 309 310 312 311 310 311 312 311 311 312 311 310 310 309 307 307 308 307 306 306 305 303 303 303 301 301 301 301 300 299 300 299 297 296 295 294 296 294 292 290 290 289
305 306 307 308 308 307 307 306 304 306 307 307 307 308 308 305 304 304 305 305 304 304 303 302 302 301 300 300 301 301 300 299 299 298 296 295 294 293 293 293 293 293 290
303 304 304 305 305 303 302 301 301 302 303 303 304 304 304 302 302 303 304 304 304 304 304 302 301 301 301 300 301 301 300 299 298 297 296 294 293 292 292 293 293 292 292
301 301 302 303 302 301 301 301 300 301 302 302 302 303 302 302 301 301 302 302 303 303 303 302 301 300 300 301 300 300 300 298 297 297 296 295 294 293 292 291 291 290 292
300 299 299 299 300 299 300 301 301 301 302 302 303 302 301 300 300 300 299 299 301 301 301 300 300 298 299 299 300 300 299 298 297 297 298 297 295 294 292 292 291 291 292
298 297 297 297 298 299 299 299 300 300 300 300 301 301 300 300 301 300 300 299 300 300 300 299 298 298 298 298 298 299 300 298 296 297 297 297 297 296 294 293 292 292 291
298 298 297 297 298 298 298 298 298 299 300 300 299 299 299 299 300 302 301 300 300 300 300 299 298 297 297 298 299 299 299 298 296 297 297 296 297 297 295 292 291 290 291
296 297 297 298 299 299 299 299 299 299 300 299 300 300 300 300 301 302 301 301 301 301 302 301 300 299 299 299 300 300 299 298 296 296 296 296 296 295 295 291 290 291 291
295 296 296 297 297 298 299 299 300 299 299 300 300 300 300 301 301 302 302 301 302 302 302 302 302 301 301 301 300 300 299 297 296 296 296 296 296 295 293 291 289 290 290
294 295 295 295 297 298 298 299 299 299 299 300 300 299 300 300 300 301 301 300 300 301 301 301 301 302 302 301 301 301 301 299 298 298 297 296 295 294 292 291 290 289 290
293 293 294 296 297 298 298 299 299 299 300 300 300 300 300 300 300 299 299 299 299 300 300 301 302 302 301 301 302 303 303 302 301 301 301 300 298 296 294 292 292 290 289
293 293 294 294 296 296 297 297 298 298 298 299 300 300 300 300 300 299 299 299 298 298 299 300 301 302 301 301 302 303 303 302 303 303 304 304 303 300 297 294 291 292 291
292 292 293 294 295 295 296 297 297 297 297 297 297 298 298 299 300 299 299 299 298 298 298 299 300 300 300 301 303 303 304 304 303 302 302 304 306 301 298 296 294 293 292
291 291 293 294 295 295 295 295 296 297 297 296 296 296 297 297 297 297 298 298 298 298 298 298 299 298 298 299 301 302 302 302 303 304 303 301 301 302 301 297 296 295 293
290 291 292 294 295 295 295 294 294 296 297 297 297 296 296 296 295 295 297 298 299 300 300 299 299 299 298 298 299 300 301 303 303 304 303 302 302 300 300 298 296 296 295
291 290 291 293 294 294 295 295 294 294 295 296 296 296 296 296 295 295 296 299 301 301 299 299 299 299 299 298 299 300 301 302 303 303 302 304 303 301 301 299 297 296 296
293 292 292 293 293 293 294 294 294 294 294 295 295 296 296 295 295 296 297 299 300 299 298 297 297 298 299 300 300 300 301 301 301 301 301 303 304 302 300 300 298 296 296
293 294 294 293 293 294 294 293 294 295 295 296 296 296 295 295 295 296 296 297 298 300 299 298 298 299 300 300 300 300 300 300 300 300 301 301 302 301 300 300 300 297 295
294 294 296 296 294 294 295 294 294 295 295 296 297 296 296 297 297 299 299 298 299 301 300 299 299 299 299 300 301 302 301 300 300 300 299 299 300 300 299 299 299 298 295
295 294 295 297 295 294 295 295 295 295 294 295 296 295 296 298 298 299 300 299 299 299 299 297 298 299 298 299 301 302 303 303 303 301 299 299 299 298 300 298 297 297 297
295 295 295 296 295 295 294 294 295 295 295 294 296 295 295 296 297 297 296 296 297 297 297 297 297 297 298 299 301 302 302 302 302 302 301 300 299 297 297 296 295 296 295
295 295 295 295 296 296 296 296 295 294 294 293 293 294 295 295 295 295 298 298 295 295 297 297 297 297 299 300 302 302 302 302 303 303 302 301 300 299 299 298 296 295 294
296 295 295 294 296 297 297 298 297 296 295 295 294 295 295 295 297 298 297 296 296 295 296 296 296 296 298 300 302 302 302 301 302 302 301 301 302 301 300 299 297 294 294
296 296 295 295 297 298 298 298 299 299 297 297 298 298 297 298 299 299 299 299 299 297 297 297 296 297 298 300 302 301 299 300 300 300 301 301 302 301 300 300 298 296 294
295 295 295 295 296 297 298 299 300 300 299 298 298 299 300 301 301 299 300 300 298 299 300 299 298 297 297 298 299 299 300 301 300 299 300 301 302 301 301 301 300 297 294
Height
5884 5882 5881 5880 5878 5876 5875 5873 5871 5869 5867 5865 5864 5862 5860 5858 5856 5854 5852 5850 5848 5846 5844 5842 5839 5837 5835 5832 5830 5828 5825 5823 5821 5820 5818 5815 5813 5811 5809 5807 5806 5804 5802
5881 5879 5878 5876 5875 5873 5871 5869 5867 5865 5864 5862 5860 5858 5856 5854 5852 5850 5848 5846 5843 5841 5839 5837 5834 5832 5829 5827 5824 5822 5819 5817 5815 5813 5811 5808 5806 5803 5802 5800 5798 5796 5794
5878 5876 5874 5873 5871 5869 5867 5865 5863 5861 5860 5858 5856 5854 5851 5849 5848 5846 5844 5841 5838 5836 5834 5831 5828 5826 5823 5821 5818 5816 5813 5811 5808 5806 5804 5801 5799 5797 5794 5793 5791 5789 5787
5874 5872 5870 5869 5867 5865 5863 5861 5859 5857 5855 5853 5851 5849 5847 5844 5842 5840 5838 5835 5833 5830 5828 5825 5822 5820 5817 5814 5812 5809 5806 5804 5801 5798 5796 5794 5792 5789 5787 5785 5783 5781 5780
5870 5868 5866 5864 5862 5860 5858 5856 5854 5852 5849 5847 5845 5843 5841 5839 5836 5834 5831 5829 5826 5824 5821 5818 5815 5813 5810 5807 5805 5802 5799 5796 5794 5791 5788 5786 5784 5781 5779 5777 5775 5773 5772
5865 5863 5861 5859 5857 5855 5852 5850 5848 5846 5844 5841 5839 5837 5834 5832 5829 5827 5824 5822 5819 5817 5814 5811 5808 5805 5802 5800 5797 5794 5791 5789 5786 5783 5781 5778 5776 5773 5771 5768 5766 5765 5764
5859 5857 5855 5853 5851 5849 5847 5844 5842 5839 5837 5835 5832 5830 5827 5825 5822 5819 5816 5814 5812 5809 5806 5803 5801 5798 5795 5792 5789 5786 5783 5780 5778 5775 5773 5770 5768 5765 5762 5760 5758 5756 5755
5854 5851 5849 5847 5845 5843 5840 5838 5835 5833 5830 5828 5825 5822 5820 5817 5814 5811 5808 5806 5804 5801 5798 5796 5793 5790 5787 5784 5781 5778 5775 5772 5769 5767 5764 5762 5759 5756 5754 5752 5749 5748 5747
5847 5845 5843 5840 5838 5836 5833 5831 5828 5825 5823 5820 5818 5815 5812 5810 5807 5804 5801 5799 5796 5794 5790 5787 5784 5782 5779 5775 5773 5770 5767 5764 5761 5758 5756 5753 5751 5748 5745 5743 5741 5740 5739
5840 5838 5835 5833 5831 5829 5827 5824 5820 5818 5816 5813 5810 5808 5805 5802 5800 5797 5794 5791 5789 5786 5782 5779 5776 5773 5770 5767 5764 5761 5759 5756 5753 5750 5748 5745 5743 5740 5737 5735 5733 5732 5730
5833 5831 5828 5826 5824 5822 5819 5816 5814 5811 5808 5805 5803 5800 5798 5795 5792 5789 5786 5783 5780 5777 5774 5771 5768 5765 5762 5759 5756 5753 5750 5747 5744 5742 5739 5737 5734 5732 5730 5727 5725 5724 5722
5826 5824 5821 5819 5817 5814 5812 5809 5806 5803 5800 5798 5795 5793 5790 5787 5784 5781 5778 5775 5772 5769 5766 5763 5760 5757 5754 5751 5748 5745 5742 5739 5737 5734 5732 5729 5727 5724 5722 5720 5718 5716 5715
5818 5816 5814 5811 5809 5807 5804 5801 5798 5795 5792 5790 5787 5785 5782 5779 5776 5773 5770 5767 5765 5762 5759 5756 5752 5749 5747 5744 5741 5738 5735 5732 5730 5727 5725 5722 5719 5717 5714 5712 5710 5708 5707
5810 5808 5805 5803 5801 5798 5795 5792 5790 5787 5784 5781 5779 5776 5774 5771 5768 5765 5762 5759 5757 5753 5750 5748 5745 5742 5739 5737 5734 5731 5728 5725 5723 5721 5718 5716 5712 5709 5707 5705 5703 5701 5700
5802 5799 5797 5794 5792 5789 5786 5784 5781 5778 5775 5773 5770 5767 5765 5762 5760 5757 5754 5751 5748 5746 5742 5740 5737 5735 5732 5730 5727 5725 5722 5719 5717 5714 5711 5709 5706 5703 5701 5698 5696 5694 5693
5792 5790 5787 5785 5782 5780 5777 5774 5772 5769 5767 5764 5761 5759 5756 5753 5750 5748 5745 5743 5740 5737 5734 5732 5729 5727 5724 5722 5720 5717 5714 5712 5710 5707 5705 5702 5699 5697 5694 5692 5689 5687 5685
5783 5780 5777 5775 5773 5770 5767 5765 5763 5761 5758 5755 5753 5750 5747 5744 5742 5739 5736 5734 5732 5729 5726 5724 5721 5719 5717 5714 5712 5710 5707 5705 5703 5700 5698 5695 5692 5689 5687 5685 5682 5680 5678
5773 5770 5768 5765 5763 5760 5758 5756 5753 5751 5749 5746 5743 5741 5738 5735 5733 5731 5728 5726 5723 5721 5718 5716 5713 5711 5709 5707 5704 5702 5700 5697 5695 5693 5690 5688 5685 5682 5680 5678 5675 5673 5671
5763 5761 5758 5756 5754 5751 5749 5746 5744 5741 5739 5737 5734 5732 5729 5727 5725 5722 5720 5718 5715 5713 5711 5708 5706 5704 5701 5699 5697 5694 5692 5690 5688 5685 5682 5680 5678 5675 5673 5670 5668 5666 5664
5754 5752 5749 5747 5744 5742 5739 5737 5735 5732 5730 5728 5725 5723 5721 5719 5716 5714 5712 5710 5708 5705 5703 5701 5698 5696 5694 5691 5689 5686 5684 5682 5680 5677 5675 5672 5670 5668 5665 5662 5660 5658 5657
5746 5743 5741 5738 5736 5733 5731 5728 5726 5724 5721 5719 5717 5715 5713 5711 5708 5706 5705 5702 5700 5698 5695 5693 5691 5688 5686 5684 5681 5679 5677 5674 5672 5669 5667 5664 5662 5660 5657 5655 5652 5651 5650
5737 5735 5733 5730 5728 5725 5723 5720 5718 5716 5713 5711 5709 5707 5705 5703 5701 5699 5696 5694 5692 5689 5687 5685 5683 5680 5678 5676 5673 5671 5669 5666 5664 5661 5659 5657 5655 5653 5650 5648 5646 5644 5643
5729 5727 5725 5722 5720 5718 5715 5712 5710 5707 5705 5703 5701 5699 5698 5696 5693 5691 5688 5685 5683 5682 5679 5677 5675 5673 5670 5668 5665 5663 5661 5659 5656 5654 5652 5650 5647 5645 5643 5641 5639 5637 5635
5722 5719 5717 5715 5713 5710 5707 5705 5702 5700 5697 5695 5693 5691 5690 5688 5686 5683 5681 5678 5676 5674 5672 5670 5667 5665 5663 5660 5658 5656 5654 5651 5649 5647 5644 5642 5640 5638 5636 5634 5632 5629 5628
5715 5712 5710 5707 5705 5702 5700 5698 5695 5693 5691 5689 5686 5684 5682 5680 5678 5676 5674 5671 5669 5667 5665 5662 5660 5658 5656 5653 5651 5649 5646 5644 5641 5639 5637 5635 5633 5631 5629 5626 5624 5622 5620
5708 5705 5702 5700 5698 5695 5693 5691 5688 5686 5684 5682 5680 5678 5675 5673 5671 5669 5667 5664 5662 5660 5657 5655 5653 5650 5648 5646 5644 5642 5639 5637 5635 5632 5630 5628 5626 5623 5621 5619 5616 5614 5612